Location: Dal�� Lhota
(48.7500°N, 14.0167°E)
Time: 21:42:44
(UTC+00:00)

Cosmos 1048 Rocket - Pass Details

Date: 24 September 2020
Orbit: 742 x 792 km, 74.0° (Epoch: 25 October)

Event Time Altitude Azimuth Distance (km) Brightness Sun altitude
Rises 17:22:41 0° 339° (NNW) 3,266 7.6 -5.1°
Reaches altitude 10° 17:25:07 10° 344° (NNW) 2,342 6.8 -5.5°
Maximum altitude 17:30:22 57° 62° (ENE) 928 4.2 -6.3°
Drops below altitude 10° 17:35:38 10° 141° (SE) 2,350 6.1 -7.2°
Sets 17:38:04 0° 146° (SE) 3,278 6.9 -7.6°
